Regional Weather Roundup
Issued by NWS

Home | Current Version | Previous Version | Graphics & Text | Print | Product List | Glossary On
Versions: 1 2 3 4 5 6 7 8 9 10 11 12 13 14 15 16 17 18 19 20 21 22 23 24 25 26 27 28 29 30 31 32 33 34 35 36 37 38 39 40 41 42 43 44 45 46 47 48 49 50
000
ASUS45 KCYS 281810
RWRWY

WYOMING REGIONAL WEATHER ROUNDUP
NATIONAL WEATHER SERVICE CHEYENNE WY
1200 PM MDT SUN MAY 28 2017

NOTE:  "FAIR" INDICATES FEW OR NO CLOUDS BELOW 12,000 FEET
WITH NO SIGNIFICANT WEATHER AND/OR OBSTRUCTIONS TO VISIBILITY.

WYZ001-281900-
YELLOWSTONE NATIONAL PARK

CITY           SKY/WX    TMP DP  RH WIND       PRES   REMARKS
LK YELLOWSTONE   N/A     49  36  61 SE5       30.42S
6HR MIN TEMP:  27; 6HR MAX TEMP:  49;

W YELLOWSTONE  NOT AVBL

$$
WYZ002>013-054>058-071-098>099-281900-
NORTHERN WYOMING

CITY           SKY/WX    TMP DP  RH WIND       PRES   REMARKS
JACKSON        MOSUNNY   59  34  38 S7        30.35F
CODY           FAIR      65  35  33 N9        30.28R
GREYBULL       FAIR      70  35  27 VRB6      30.21F
6HR MIN TEMP:  47; 6HR MAX TEMP:  71;

WORLAND        FAIR      69  41  36 NE10      30.23F
6HR MIN TEMP:  41; 6HR MAX TEMP:  69;

SHERIDAN       FAIR      67  44  43 N21G30    30.20S
6HR MIN TEMP:  51; 6HR MAX TEMP:  70;

BUFFALO        PTSUNNY   65  40  39 VRB5      30.24F
6HR MIN TEMP:  49; 6HR MAX TEMP:  66;

GILLETTE       FAIR      68  45  43 NW23G31   30.17S
6HR MIN TEMP:  50; 6HR MAX TEMP:  68;

HULETT         MOCLDY    64  41  42 NW10G20   30.16F
NEWCASTLE      FAIR      66  36  32 NW17G29   30.16F

$$
WYZ014>020-022>026-101>103-281900-
CENTRAL WYOMING

CITY           SKY/WX    TMP DP  RH WIND       PRES   REMARKS
BIG PINEY      PTSUNNY   57  28  33 N6        30.37S
6HR MIN TEMP:  29; 6HR MAX TEMP:  60;

PINEDALE       FAIR      59  23  25 W6        30.38S
DUBOIS         FAIR      59  27  29 CALM      30.34S
LANDER         FAIR      64  37  36 VRB3      30.28S
6HR MIN TEMP:  42; 6HR MAX TEMP:  65;

RIVERTON       FAIR      65  34  31 VRB5      30.28F
6HR MIN TEMP:  44; 6HR MAX TEMP:  65;

CASPER         PTSUNNY   64  35  34 NW14G22   30.24F
6HR MIN TEMP:  42; 6HR MAX TEMP:  65;

DOUGLAS        PTSUNNY   67  39  35 W15       30.22F
6HR MIN TEMP:  41; 6HR MAX TEMP:  67;


$$
WYZ021-027>030-104>119-281900-
SOUTHERN WYOMING

CITY           SKY/WX    TMP DP  RH WIND       PRES   REMARKS
EVANSTON       FAIR      60  30  32 W14       30.36S
6HR MIN TEMP:  38; 6HR MAX TEMP:  60;

KEMMERER         N/A     55  27  33 CALM      30.38S
FORT BRIDGER   FAIR      60  26  26 W3        30.38F
ROCK SPRINGS   FAIR      60  26  27 N5        30.35F
6HR MIN TEMP:  37; 6HR MAX TEMP:  61;

DIXON            N/A     60  31  33 W5        30.38S
RAWLINS        PTSUNNY   59  28  30 NW8       30.34F
6HR MIN TEMP:  32; 6HR MAX TEMP:  62;

SARATOGA       FAIR      59  32  36 N12G18    30.37R
LARAMIE        FAIR      59  30  33 N14G26    30.32F
6HR MIN TEMP:  30; 6HR MAX TEMP:  59;

CHEYENNE       PTSUNNY   61  29  29 NW16G22   30.28F
6HR MIN TEMP:  42; 6HR MAX TEMP:  62;

TORRINGTON     FAIR      70  37  29 NW12G21   30.18S
6HR MIN TEMP:  40; 6HR MAX TEMP:  71;

PINE BLUFFS    FAIR      66  32  28 NW14      30.24F

$$



USA.gov is the U.S. government's official web portal to all federal, state and local government web resources and services.